Location: Alsip
(41.6689°N, 87.7387°W)
Time: 12:56:41
(UTC+00:00)

XW-2B - Pass Details

Date: 26 October 2021
Orbit: 504 x 522 km, 97.5° (Epoch: 04 December)

Event Time Altitude Azimuth Distance (km) Brightness Sun altitude
Rises 23:48:42 0° 196° (SSW) 2,608 ? -11.0°
Reaches altitude 10° 23:51:07 10° 212° (SSW) 1,724 ? -11.5°
Maximum altitude 23:54:04 22° 265° (W) 1,135 ? -12.0°
Drops below altitude 10° 23:57:03 10° 318° (NW) 1,729 ? -12.6°
Sets 23:59:29 0° 334° (NNW) 2,617 ? -13.0°
